STARLINK-35366

Last updated on Tue Dec 16 2025 00:02:05 GMT+0000 (Coordinated Universal Time)

1 66512U 25263AD 25349.38513157 .00051054 00000+0 86941-3 0 9999 2 66512 43.0009 109.5634 0000852 294.2045 65.8726 15.50611449 5978
UTC large
Height (km)
Speed (km/s)
/
Latitude / Longitude
Inclination (degrees)
Orbital Period (minutes)
Azimuth
Elevation
Range (km)
Doppler Factor

Next 0 passes for location: London (51.5072 / 0.1276)

Sorry there are no passes over London.